Retour au catalogue

SNUGLITE-III DURI

ActifRadio amateurSSO
NORAD 66661·PAYLOAD·🇰🇷 South Korea

Lancé Nov 26, 2025 depuis Naro Space Center

Loading…

Prochains Passages (prochaines 24 heures)

TLE

FraisSource: AMSAT

Époque: Sep 14, 2026, 12:26 UTC

1 66661U 25274M   26257.51836132  .00001019  00000-0  10009-3 0  9990
2 66661  97.7484 185.7936 0016073  82.6528 277.6518 14.94245093 43579

Suivez SNUGLITE-III DURI en temps réel avec AllMySat

Download on the App Store